"Pseudo-MPEC" for CA2010V

Created 2020 Feb 18 16:07:35 UT using Find_Orb

Click here for an explanation of pseudo-MPECs

 
 Astrometry: 
     CA2010V  C2020 01 31[KAp)J5F4b8qU2OdZ6)'J[fDRe\D;:Y@5*IoT8hT`V@i@TY#[)^N954
     CA2010V  C2020 01 317Ad5]Xn#nR'c-?Yuth5P.XJc7MxA1TIv37Yk`698qWEkjueXdoAC954
     CA2010V  C2020 01 31s^4F\U17X4gk%Astrometry7ej*$ba#S,xrdredacted;=g+::CN954
     CA2010V  C2020 01 31`^Kq98b?8y^()bDE@w+rIo5jUOclick*xXDXp)here2cAt(3Mg1)954
     CA2010V  C2020 01 31`0I8;Bfor;d1,sajrs5*5_4!HUP+i#L_4/yxexplanationYk9U-954

Station data:
(954) Teide Observatory  (N28.298383 W16.509400)  Canary Islands (Spain).

Orbital elements:  CA2010V
   Perihelion 2019 Aug 31.868301 +/- 357 TT = 20:50:21 (JD 2458727.368301)
Epoch 2020 Feb  1.0 TT = JDT 2458880.5   Earth MOID: 0.0049   AutoNEOCP
M 166.55897324 +/- 110              (J2000 ecliptic)
n   1.08768448 +/- 0.513            Peri.  225.01059 +/- 52
a   0.93641298 +/- 0.295            Node    95.30623 +/- 31
e   0.0871674 +/- 0.2               Incl.    4.04983 +/- 40
P   0.91/330.97d           H 25.6   G  0.15   U 12.3  SR
q 0.85478825 +/- 1.23    Q 1.01803771 +/- 114
From 5 observations 2020 Jan. 31 (8.6 min); mean residual 0".19
Residuals in arcseconds: 
200131 954  .27-  .10+    200131 954  .35+  .23-    200131 954  .25-  .07+    
200131 954  .12+  .02-    200131 954  .06+  .07+    

Ephemerides (geocentric):
Date (UTC) HH   RA              Dec         delta   r     elong  mag " sig PA
---- -- -- --  -------------   -----------  ------ ------ -----  --- ---- ---
2020 02 18 16  04 48 17.429   +58 27 12.52  .09414 1.0177 105.6 23.0 4676 168
2020 02 18 17  04 48 21.702   +58 26 59.86  .09420 1.0177 105.6 23.0 4690 168
2020 02 18 18  04 48 25.981   +58 26 47.21  .09427 1.0177 105.6 23.0 4704 168
2020 02 18 19  04 48 30.265   +58 26 34.55  .09433 1.0177 105.6 23.0 4718 168
2020 02 18 20  04 48 34.555   +58 26 21.90  .09439 1.0177 105.5 23.0 4732 168
2020 02 18 21  04 48 38.850   +58 26 09.25  .09446 1.0177 105.5 23.0 4745 168
2020 02 18 22  04 48 43.151   +58 25 56.59  .09452 1.0176 105.5 23.0 4759 168
2020 02 18 23  04 48 47.457   +58 25 43.94  .09458 1.0176 105.5 23.0 4773 168
2020 02 19 00  04 48 51.769   +58 25 31.28  .09465 1.0176 105.4 23.0 4787 168
2020 02 19 01  04 48 56.086   +58 25 18.63  .09471 1.0176 105.4 23.0 4801 168
2020 02 19 02  04 49 00.409   +58 25 05.98  .09477 1.0176 105.4 23.0 4814 169
2020 02 19 03  04 49 04.737   +58 24 53.32  .09483 1.0176 105.4 23.0 4828 169
2020 02 19 04  04 49 09.070   +58 24 40.67  .09490 1.0176 105.3 23.0 4842 169
2020 02 19 05  04 49 13.409   +58 24 28.02  .09496 1.0176 105.3 23.0 4856 169
2020 02 19 06  04 49 17.754   +58 24 15.37  .09502 1.0176 105.3 23.0 4870 169
2020 02 19 07  04 49 22.103   +58 24 02.71  .09509 1.0176 105.3 23.0 4884 169
2020 02 19 08  04 49 26.459   +58 23 50.06  .09515 1.0176 105.2 23.0 4898 169
2020 02 19 09  04 49 30.819   +58 23 37.41  .09521 1.0176 105.2 23.0 4912 169
2020 02 19 10  04 49 35.185   +58 23 24.76  .09528 1.0176 105.2 23.0 4926 169
2020 02 19 11  04 49 39.557   +58 23 12.11  .09534 1.0176 105.2 23.0 4940 169
2020 02 19 12  04 49 43.933   +58 22 59.46  .09540 1.0176 105.1 23.0 4954 169
2020 02 19 13  04 49 48.316   +58 22 46.81  .09546 1.0176 105.1 23.0 4968 169
2020 02 19 14  04 49 52.703   +58 22 34.16  .09553 1.0175 105.1 23.0 4982 169
2020 02 19 15  04 49 57.096   +58 22 21.51  .09559 1.0175 105.1 23.0 4996 169
2020 02 19 16  04 50 01.494   +58 22 08.86  .09565 1.0175 105.0 23.0 5010 169
2020 02 19 17  04 50 05.897   +58 21 56.21  .09571 1.0175 105.0 23.0 5024 169
2020 02 19 18  04 50 10.306   +58 21 43.56  .09578 1.0175 105.0 23.0 5038 169
2020 02 19 19  04 50 14.720   +58 21 30.91  .09584 1.0175 105.0 23.0 5052 169
2020 02 19 20  04 50 19.140   +58 21 18.26  .09590 1.0175 105.0 23.0 5066 169
2020 02 19 21  04 50 23.564   +58 21 05.61  .09596 1.0175 104.9 23.0 5080 169
2020 02 19 22  04 50 27.994   +58 20 52.96  .09603 1.0175 104.9 23.0 5094 169
2020 02 19 23  04 50 32.429   +58 20 40.32  .09609 1.0175 104.9 23.0 5108 169
2020 02 20 00  04 50 36.870   +58 20 27.67  .09615 1.0175 104.9 23.0 5123 169
2020 02 20 01  04 50 41.315   +58 20 15.02  .09621 1.0175 104.8 23.0 5137 169
2020 02 20 02  04 50 45.766   +58 20 02.38  .09628 1.0175 104.8 23.0 5151 169
2020 02 20 03  04 50 50.222   +58 19 49.73  .09634 1.0175 104.8 23.0 5165 169
2020 02 20 04  04 50 54.684   +58 19 37.09  .09640 1.0175 104.8 23.1 5179 169
2020 02 20 05  04 50 59.150   +58 19 24.44  .09646 1.0174 104.7 23.1 5193 169
2020 02 20 06  04 51 03.622   +58 19 11.80  .09653 1.0174 104.7 23.1 5208 169
2020 02 20 07  04 51 08.099   +58 18 59.15  .09659 1.0174 104.7 23.1 5222 169
2020 02 20 08  04 51 12.581   +58 18 46.51  .09665 1.0174 104.7 23.1 5236 169
2020 02 20 09  04 51 17.068   +58 18 33.87  .09671 1.0174 104.6 23.1 5250 169
2020 02 20 10  04 51 21.560   +58 18 21.22  .09677 1.0174 104.6 23.1 5265 169
2020 02 20 11  04 51 26.058   +58 18 08.58  .09684 1.0174 104.6 23.1 5279 169
2020 02 20 12  04 51 30.561   +58 17 55.94  .09690 1.0174 104.6 23.1 5293 169
2020 02 20 13  04 51 35.068   +58 17 43.30  .09696 1.0174 104.6 23.1 5308 169
2020 02 20 14  04 51 39.581   +58 17 30.66  .09702 1.0174 104.5 23.1 5322 169
2020 02 20 15  04 51 44.099   +58 17 18.02  .09708 1.0174 104.5 23.1 5336 169